Regional Weather Roundup
Issued by NWS

Home | Current Version | Previous Version | Graphics & Text | Print | Product List | Glossary On
Versions: 1 2 3 4 5 6 7 8 9 10 11 12 13 14 15 16 17 18 19 20 21 22 23 24 25 26 27 28 29 30 31 32 33 34 35 36 37 38 39 40 41 42 43 44 45 46 47 48 49 50
000
ASUS43 KLMK 041010
RWRKY
KENTUCKY REGIONAL WEATHER ROUNDUP
NATIONAL WEATHER SERVICE LOUISVILLE KY
600 AM EDT MON MAY 04 2015

NOTE "FAIR" INDICATES FEW OR NO CLOUDS BELOW 12,000 FEET
WITH NO SIGNIFICANT WEATHER AND/OR OBSTRUCTIONS TO VISIBILITY.

KYZ001>023-026-027-061>063-070>075-041100-
WESTERN AND SOUTH CENTRAL KENTUCKY

CITY           SKY/WX    TMP DP  RH WIND       PRES   REMARKS
PADUCAH        PTCLDY    65  50  58 S6        30.08S
HENDERSON      PTCLDY    61  48  63 S6        30.09S
OWENSBORO      CLEAR     59  52  77 S6        30.11S
HOPKINSVILLE   MOCLDY    61  52  72 S5        30.13R
BOWLING GREEN  CLEAR     54  49  83 CALM      30.15R
GLASGOW        PTCLDY    56  48  73 CALM      30.16S
$$

KYZ024-025-028>034-038-045-046-053-041100-
NORTH CENTRAL KENTUCKY

CITY           SKY/WX    TMP DP  RH WIND       PRES   REMARKS
LOUISVILLE/SDF PTCLDY    59  51  75 SE3       30.13R
LOUISVILLE/LOU CLEAR     58  50  75 S3        30.13S
FORT KNOX      CLEAR     56  49  77 S6        30.12R
$$

KYZ035>037-039>044-047>052-055>060-089>105-041100-
NORTHEAST KENTUCKY

CITY           SKY/WX    TMP DP  RH WIND       PRES   REMARKS
LEXINGTON      PTCLDY    57  48  72 S7        30.16S
COVINGTON      PTCLDY    58  48  69 S7        30.12S
FRANKFORT      PTCLDY    55  48  77 SW5       30.14R
$$

KYZ054-064>069-076>088-106>120-041100-
SOUTHEAST KENTUCKY

CITY           SKY/WX    TMP DP  RH WIND       PRES   REMARKS
JACKSON        CLEAR     59  45  59 SW3       30.20R
LONDON         CLEAR     51  46  83 CALM      30.20R
SOMERSET       CLEAR     50  50 100 CALM      30.21R
MIDDLESBORO    CLEAR     46  46  97 CALM      30.24S
MONTICELLO     SUNNY     50  50 100 CALM      30.22R
$$



USA.gov is the U.S. government's official web portal to all federal, state and local government web resources and services.